[[{"header":{"parameterUnit":"m.s-1","parameterCategory":1,"la1":30.2991,"la2":30.254,"lo1":-89.0895,"lo2":-89.0444,"dy":0.0017,"dx":0.0017,"nx":28,"ny":28,"refTime":"2025-03-08T03:00:00:Z","depth":0,"parameterNumber":2,"parameterNumberName":"U-component_of_WINDS"},"data":[0,0,0,0,0,0,0,0,0,0,0,0,0,0,0,0,0,0,0,0,0,0,0,0,0,0,0,0,0,0,0,0,0,0,0,0,0,0,0,0,0,0,0,0,0,0,0,0,0,0,0,0,0,0,0,0,0,0,-3.339,-3.339,0,-3.3347,-3.3347,-3.3346,-3.3281,-3.328,-3.3279,-3.3278,-3.3234,-3.3234,-3.3234,0,0,0,0,0,0,0,0,0,0,0,0,0,-3.3419,-3.3419,-3.339,-3.339,-3.3389,-3.3347,-3.3347,-3.3346,-3.3282,-3.328,-3.3279,-3.3278,-3.3234,-3.3234,-3.3234,0,0,0,0,0,0,0,0,0,0,0,0,0,-3.3395,-3.3419,-3.339,-3.3352,-3.3348,-3.3348,-3.3347,-3.3346,-3.3282,-3.328,-3.3278,-3.3277,-3.3234,-3.3234,-3.3234,-3.3267,0,0,-3.3233,-3.3233,0,0,0,0,0,0,0,0,-3.3396,-3.3394,-3.3358,-3.3355,-3.335,-3.3318,-3.3341,-3.332,-3.3282,-3.3307,-3.3278,-3.3276,-3.3263,-3.3261,-3.3256,-3.3265,-3.3263,-3.3233,-3.3233,-3.3233,-3.3233,0,0,0,0,0,0,0,-3.3398,-3.3395,-3.3373,-3.3358,-3.3353,-3.3338,-3.3332,-3.3336,-3.3295,-3.3305,-3.33,-3.3296,-3.3261,-3.3257,-3.3255,-3.3262,-3.3233,-3.3233,-3.3233,-3.3233,-3.3302,-3.3303,0,0,0,0,0,0,-3.3405,-3.3397,-3.3375,-3.3372,-3.3369,-3.3339,-3.3333,-3.333,-3.3295,-3.3288,-3.3297,-3.3293,-3.3258,-3.3255,-3.3253,-3.3293,-3.3233,-3.3233,-3.3233,-3.33,-3.3302,-3.3304,0,0,0,0,0,0,-3.3406,-3.3404,-3.3376,-3.3383,-3.3379,-3.334,-3.3338,-3.333,-3.3326,-3.3289,-3.3282,-3.33,-3.3256,-3.3253,-3.3265,-3.329,-3.3233,-3.3233,-3.3297,-3.33,-3.3303,-3.3371,0,0,0,0,0,0,-3.3407,-3.3404,-3.3416,-3.3384,-3.3378,-3.3388,-3.3339,-3.3331,-3.3326,-3.332,-3.329,-3.3284,-3.3255,-3.3266,-3.3265,-3.3289,-3.3233,-3.3295,-3.3299,-3.3302,-3.3366,-3.3376,-3.3384,0,0,0,0,0,-3.3408,-3.3435,-3.3416,-3.3414,-3.3392,-3.339,-3.3387,-3.3353,-3.3328,-3.334,-3.3317,-3.3285,-3.3288,-3.3268,-3.3266,-3.329,-3.3293,-3.3298,-3.3302,-3.3362,-3.3374,-3.3384,0,0,0,0,0,0,-3.3469,-3.343,-3.3409,-3.3426,-3.3412,-3.3379,-3.3392,-3.3365,-3.3358,-3.3352,-3.331,-3.3304,-3.3323,-3.3307,-3.3286,-3.3323,-3.3286,-3.329,-3.3332,-3.3343,-3.3352,-3.3355,-3.3232,0,0,0,0,0,-3.3485,-3.3487,-3.3452,-3.3471,-3.3465,-3.3431,-3.3428,-3.3404,-3.3387,-3.3381,-3.3359,-3.3345,-3.3343,-3.3342,-3.3338,-3.3364,-3.3359,-3.3381,-3.339,-3.3397,-3.3401,-3.3418,-3.3429,-3.3318,-3.3318,-3.3318,0,0,-3.3517,-3.3496,-3.3499,-3.3483,-3.3469,-3.3473,-3.3426,-3.3431,-3.3434,-3.3381,-3.3392,-3.3376,-3.3358,-3.3378,-3.3386,-3.3366,-3.3431,-3.3402,-3.3409,-3.3409,-3.3424,-3.3434,-3.3444,-3.3321,-3.3321,-3.332,0,0,-3.3578,-3.3561,-3.3577,-3.3565,-3.3545,-3.3523,-3.3527,-3.3499,-3.3487,-3.3497,-3.3459,-3.3463,-3.3459,-3.3449,-3.3443,-3.3506,-3.3477,-3.3506,-3.3552,-3.3569,-3.3577,-3.3585,-3.361,-3.3619,-3.351,-3.351,-3.351,0,-3.362,-3.3623,-3.3588,-3.3597,-3.3592,-3.3547,-3.3564,-3.3554,-3.3534,-3.3533,-3.3511,-3.3509,-3.3493,-3.3513,-3.3529,-3.3524,-3.353,-3.3508,-3.3579,-3.3586,-3.3593,-3.3616,-3.3625,-3.3514,-3.3513,-3.3513,-3.3513,0,-3.3678,-3.3682,-3.3697,-3.3681,-3.3678,-3.3691,-3.3659,-3.3661,-3.3638,-3.3618,-3.3632,-3.3612,-3.3605,-3.3608,-3.3584,-3.3625,-3.3614,-3.3586,-3.3548,-3.3608,-3.3629,-3.3637,-3.3519,-3.3518,-3.3517,-3.3516,0,0,-3.3772,-3.374,-3.3746,-3.3741,-3.3718,-3.3721,-3.3733,-3.3727,-3.3731,-3.372,-3.3731,-3.3732,-3.3707,-3.3701,-3.3677,-3.3692,-3.3747,-3.3662,-3.3661,-3.3681,-3.3795,-3.3816,-3.3827,-3.3728,-3.3729,-3.373,-3.3797,0,-3.383,-3.3849,-3.382,-3.3846,-3.3851,-3.3811,-3.3822,-3.3811,-3.3794,-3.3797,-3.3778,-3.3781,-3.3747,-3.3743,-3.3756,-3.3737,-3.3769,-3.3732,-3.3739,-3.374,-3.3746,-3.3838,-3.386,-3.3923,-3.3805,-3.3806,-3.3807,0,-3.3898,-3.3893,-3.392,-3.39,-3.3901,-3.3912,-3.3907,-3.3909,-3.3897,-3.3884,-3.388,-3.3852,-3.3865,-3.3829,-3.3848,-3.3823,-3.3825,-3.3817,-3.3818,-3.3818,-3.3777,-3.3842,-3.3942,-3.3953,-3.3819,-3.3818,-3.3817,0,-3.3967,-3.3967,-3.3985,-3.398,-3.3957,-3.3966,-3.3957,-3.3943,-3.3943,-3.3939,-3.3939,-3.3936,-3.3935,-3.3934,-3.3908,-3.3883,-3.3931,-3.3891,-3.3923,-3.3924,-3.3934,-3.3934,-3.4038,-3.3934,-3.3934,-3.3933,-3.3933,0,-3.4034,-3.4053,-3.4016,-3.4027,-3.4048,-3.4016,-3.4038,-3.4025,-3.4014,-3.4023,-3.3988,-3.3997,-3.3961,-3.3967,-3.3946,-3.3967,-3.3966,-3.3958,-3.3952,-3.3962,-3.3963,-3.3962,-3.3958,-3.3936,-3.3935,-3.3935,-3.3934,0,-3.4115,-3.409,-3.4107,-3.4085,-3.4081,-3.4098,-3.4079,-3.409,-3.4072,-3.4085,-3.4086,-3.4059,-3.4065,-3.4038,-3.4039,-3.4026,-3.4058,-3.4044,-3.4062,-3.4059,-3.4092,-3.409,-3.42,-3.4214,-3.41,-3.4101,-3.4102,0,-3.416,-3.4174,-3.4155,-3.4159,-3.4152,-3.4158,-3.4159,-3.4129,-3.4132,-3.4122,-3.4134,-3.4138,-3.4139,-3.4151,-3.4132,-3.4134,-3.4121,-3.4159,-3.412,-3.4131,-3.4124,-3.4124,-3.4127,-3.4167,-3.4169,-3.417,-3.4171,0,-3.4243,-3.4231,-3.4234,-3.4234,-3.4236,-3.4234,-3.423,-3.4236,-3.4204,-3.4209,-3.4216,-3.4217,-3.422,-3.4225,-3.4224,-3.4215,-3.4189,-3.4184,-3.4191,-3.4201,-3.4212,-3.4209,-3.4086,-3.4181,-3.418,-3.4179,-3.4179,-3.4178,-3.4308,-3.432,-3.431,-3.4315,-3.431,-3.4308,-3.4318,-3.4304,-3.4309,-3.4309,-3.4292,-3.4303,-3.4295,-3.429,-3.4285,-3.4295,-3.4277,-3.4287,-3.429,-3.4294,-3.4301,-3.4211,-3.4294,-3.4294,-3.4293,-3.4293,-3.4293,0,-3.4391,-3.4384,-3.4389,-3.4386,-3.4391,-3.4367,-3.4363,-3.4369,-3.438,-3.4374,-3.4377,-3.4387,-3.4393,-3.4377,-3.4381,-3.4392,-3.438,-3.4394,-3.4393,-3.4393,-3.4315,-3.4309,-3.4404,-3.4404,-3.4404,-3.4404,-3.4404,-3.4403,-3.4435,-3.4456,-3.4444,-3.4463,-3.4456,-3.4467,-3.4467,-3.4467,-3.4463,-3.4476,-3.4481,-3.4471,-3.4462,-3.4466,-3.4471,-3.4466,-3.447,-3.4489,-3.448,-3.4408,-3.4397,-3.4387,-3.4381,-3.449,-3.449,-3.4557,-3.4558,-3.4558]},{"header":{"parameterUnit":"m.s-1","parameterCategory":1,"la1":30.2991,"la2":30.254,"lo1":-89.0895,"lo2":-89.0444,"dy":0.0017,"dx":0.0017,"nx":28,"ny":28,"refTime":"2025-03-08T03:00:00:Z","depth":0,"parameterNumber":3,"parameterNumberName":"V-component_of_WINDS"},"data":[0,0,0,0,0,0,0,0,0,0,0,0,0,0,0,0,0,0,0,0,0,0,0,0,0,0,0,0,0,0,0,0,0,0,0,0,0,0,0,0,0,0,0,0,0,0,0,0,0,0,0,0,0,0,0,0,0,0,1.8008,1.8008,0,1.805,1.8051,1.8051,1.8081,1.8082,1.8082,1.8082,1.8122,1.8123,1.8124,0,0,0,0,0,0,0,0,0,0,0,0,0,1.7952,1.7952,1.8008,1.8008,1.8009,1.805,1.8051,1.8051,1.8081,1.8082,1.8082,1.8082,1.8122,1.8123,1.8124,0,0,0,0,0,0,0,0,0,0,0,0,0,1.7983,1.7953,1.8008,1.8029,1.8031,1.805,1.8051,1.8052,1.8081,1.8082,1.8082,1.8082,1.8122,1.8123,1.8124,1.8124,0,0,1.8128,1.8128,0,0,0,0,0,0,0,0,1.7981,1.7985,1.8025,1.8028,1.803,1.8061,1.8046,1.8076,1.8081,1.8062,1.8082,1.8083,1.8101,1.8104,1.8111,1.8126,1.8128,1.8128,1.8129,1.8129,1.813,0,0,0,0,0,0,0,1.7979,1.7983,1.8025,1.8026,1.8029,1.8036,1.8041,1.8051,1.8079,1.8064,1.8066,1.8071,1.8103,1.811,1.8112,1.8128,1.8128,1.8129,1.813,1.813,1.8147,1.8146,0,0,0,0,0,0,1.7974,1.7981,1.8023,1.8026,1.8006,1.8037,1.8042,1.8051,1.8079,1.8084,1.8071,1.8072,1.8108,1.8111,1.8114,1.8117,1.8129,1.813,1.8131,1.8147,1.8147,1.8146,0,0,0,0,0,0,1.7972,1.7977,1.8022,1.8004,1.8011,1.8037,1.8047,1.8051,1.8059,1.8084,1.8089,1.8073,1.8108,1.8112,1.8122,1.8118,1.8131,1.8132,1.8147,1.8147,1.8146,1.8121,0,0,0,0,0,0,1.7971,1.7977,1.7977,1.8004,1.8011,1.8029,1.8046,1.8052,1.8061,1.8064,1.8088,1.8092,1.8109,1.812,1.8123,1.812,1.8133,1.8148,1.8147,1.8147,1.8122,1.812,1.8118,0,0,0,0,0,1.7969,1.7967,1.7977,1.7982,1.8013,1.8029,1.8033,1.8053,1.8061,1.8061,1.8078,1.8091,1.8119,1.8121,1.8125,1.8122,1.8148,1.8147,1.8147,1.8124,1.812,1.8118,0,0,0,0,0,0,1.7937,1.7971,1.7982,1.799,1.8006,1.8034,1.8035,1.8049,1.8063,1.8064,1.8088,1.8093,1.8101,1.8112,1.8114,1.8124,1.8135,1.8135,1.8116,1.8113,1.8111,1.8108,1.8134,0,0,0,0,0,1.7932,1.7943,1.7971,1.7975,1.7983,1.8008,1.8016,1.803,1.8048,1.8055,1.8072,1.8088,1.81,1.8108,1.812,1.8125,1.8131,1.8125,1.8123,1.8121,1.812,1.8124,1.8122,1.8144,1.8144,1.8144,0,0,1.7919,1.7939,1.7944,1.7969,1.7984,1.7995,1.8013,1.8023,1.8031,1.8056,1.8066,1.808,1.8099,1.8107,1.8111,1.8117,1.8116,1.812,1.8118,1.8119,1.8123,1.8121,1.812,1.8143,1.8144,1.8144,0,0,1.7902,1.7918,1.7924,1.7939,1.7961,1.7978,1.798,1.8006,1.8016,1.8028,1.8046,1.8056,1.8077,1.809,1.81,1.809,1.8103,1.8094,1.8081,1.8085,1.8083,1.8082,1.8078,1.8077,1.8093,1.8093,1.8093,0,1.7883,1.7901,1.7924,1.7934,1.7945,1.797,1.7975,1.7988,1.8013,1.802,1.8027,1.8054,1.8069,1.808,1.8078,1.8085,1.8087,1.809,1.8082,1.808,1.8079,1.8077,1.8075,1.8092,1.8092,1.8092,1.8092,0,1.7877,1.7889,1.789,1.7916,1.7927,1.7934,1.7959,1.7968,1.7982,1.7998,1.801,1.8029,1.8046,1.805,1.8063,1.8064,1.8067,1.8077,1.8088,1.8076,1.8073,1.8073,1.809,1.809,1.8091,1.8091,0,0,1.7838,1.7879,1.7879,1.7892,1.792,1.7929,1.7939,1.7957,1.7964,1.7981,1.7989,1.8007,1.8018,1.8029,1.8044,1.8047,1.8039,1.8057,1.8058,1.8053,1.8041,1.8033,1.8031,1.8048,1.8048,1.8048,1.804,0,1.7825,1.7844,1.7867,1.7877,1.7889,1.7914,1.7922,1.794,1.7956,1.7967,1.7985,1.7997,1.801,1.8017,1.8022,1.8039,1.8037,1.804,1.8055,1.8056,1.8049,1.803,1.8021,1.8012,1.8039,1.8039,1.8039,0,1.7812,1.783,1.7842,1.7871,1.7876,1.7883,1.7903,1.7914,1.7935,1.7947,1.796,1.7977,1.7988,1.7999,1.8014,1.8015,1.8023,1.8033,1.8033,1.8035,1.8046,1.803,1.8009,1.8008,1.8038,1.8038,1.8038,0,1.7783,1.781,1.7821,1.7831,1.7865,1.7869,1.7883,1.7905,1.7915,1.7933,1.794,1.7957,1.7967,1.798,1.8001,1.8007,1.8014,1.8026,1.8023,1.8023,1.8023,1.8022,1.8002,1.8029,1.8029,1.8029,1.8029,0,1.7765,1.7771,1.7809,1.7815,1.7824,1.785,1.7857,1.7874,1.7893,1.7903,1.7926,1.7934,1.7963,1.7975,1.7991,1.8002,1.8006,1.8015,1.8019,1.8012,1.8011,1.8017,1.8018,1.8028,1.8028,1.8028,1.8029,0,1.7733,1.7758,1.7772,1.7804,1.7813,1.7817,1.7844,1.7852,1.787,1.7883,1.7887,1.7915,1.7931,1.7954,1.7976,1.7987,1.7995,1.8002,1.7988,1.799,1.7986,1.7986,1.7968,1.7967,1.7995,1.7994,1.7994,0,1.772,1.7726,1.7759,1.7768,1.7782,1.7796,1.7808,1.7835,1.7846,1.7872,1.7876,1.7894,1.7909,1.7933,1.7955,1.7972,1.798,1.7972,1.7982,1.7976,1.7979,1.7978,1.7979,1.7969,1.7969,1.7969,1.7968,0,1.7693,1.7706,1.7722,1.7744,1.7757,1.7775,1.7793,1.7799,1.783,1.7841,1.7858,1.7871,1.7895,1.7912,1.7933,1.7947,1.7962,1.7966,1.7966,1.7958,1.795,1.7955,1.7981,1.7965,1.7966,1.7966,1.7966,1.7966,1.767,1.7677,1.7702,1.772,1.7737,1.7755,1.7764,1.7784,1.78,1.7822,1.7837,1.7854,1.7876,1.7906,1.7919,1.7932,1.7939,1.7939,1.7939,1.7939,1.7936,1.7949,1.7936,1.7936,1.7937,1.7937,1.7937,0,1.7645,1.7663,1.7679,1.7705,1.772,1.7736,1.7758,1.7768,1.7783,1.7803,1.7819,1.7839,1.7857,1.7881,1.79,1.7906,1.7914,1.791,1.791,1.7913,1.7929,1.7927,1.7904,1.7904,1.7904,1.7904,1.7904,1.7904,1.7633,1.7646,1.7662,1.7684,1.7702,1.772,1.7731,1.7747,1.7764,1.7786,1.7802,1.7818,1.784,1.7862,1.7879,1.7885,1.7891,1.7885,1.7894,1.7908,1.7911,1.7914,1.7912,1.7886,1.7886,1.7876,1.7876,1.7876]}]]